| time (UTC) | temp F | wind direction | speed MPH | gust MPH | rain 1hr in | rain 24hr in | rain mn in | humidity % | barometer mb |
| 20260902211527 | 85 | 175 | 9.0 | 24.0 | 0.00 | 0.00 | 0.00 | 34 | 851.5 |
| 20260902210025 | 84 | 192 | 13.0 | 27.0 | 0.00 | 0.00 | 0.00 | 35 | 851.9 |
| 20260902204527 | 84 | 170 | 18.0 | 32.0 | 0.00 | 0.00 | 0.00 | 35 | 851.8 |
| 20260902203023 | 84 | 243 | 15.0 | 25.0 | 0.00 | 0.00 | 0.00 | 36 | 852.2 |
| 20260902201523 | 84 | 240 | 10.0 | 23.0 | 0.00 | 0.00 | 0.00 | 38 | 852.3 |
| 20260902200029 | 83 | 215 | 12.0 | 22.0 | 0.00 | 0.00 | 0.00 | 37 | 852.2 |
| 20260902194535 | 84 | 172 | 15.0 | 24.0 | 0.00 | 0.00 | 0.00 | 36 | 852.4 |
| 20260902193027 | 84 | 183 | 11.0 | 28.0 | 0.00 | 0.00 | 0.00 | 36 | 852.5 |
| 20260902191526 | 84 | 212 | 12.0 | 23.0 | 0.00 | 0.00 | 0.00 | 37 | 852.6 |
| 20260902190042 | 83 | 242 | 10.0 | 28.0 | 0.00 | 0.00 | 0.00 | 38 | 852.7 |
| 20260902184525 | 83 | 225 | 11.0 | 23.0 | 0.00 | 0.00 | 0.00 | 38 | 852.8 |
| 20260902183004 | 82 | 178 | 10.0 | 26.0 | 0.00 | 0.00 | 0.00 | 40 | 853.0 |
| 20260902181503 | 82 | 189 | 16.0 | 24.0 | 0.00 | 0.00 | 0.00 | 38 | 853.3 |
| 20260902180012 | 80 | 202 | 11.0 | 20.0 | 0.00 | 0.00 | 0.00 | 40 | 853.5 |
| 20260902174504 | 78 | 179 | 12.0 | 22.0 | 0.00 | 0.00 | 0.00 | 42 | 853.7 |
| 20260902173007 | 77 | 173 | 6.0 | 16.0 | 0.00 | 0.00 | 0.00 | 50 | 854.0 |
| 20260902171505 | 75 | 144 | 7.0 | 14.0 | 0.00 | 0.00 | 0.00 | 55 | 853.9 |
| 20260902170004 | 75 | 130 | 10.0 | 16.0 | 0.00 | 0.00 | 0.00 | 54 | 853.8 |
| 20260902164504 | 75 | 142 | 8.0 | 13.0 | 0.00 | 0.00 | 0.00 | 55 | 853.7 |
| 20260902163003 | 74 | 116 | 8.0 | 14.0 | 0.00 | 0.00 | 0.00 | 55 | 853.6 |
| 20260902161519 | 74 | 116 | 8.0 | 13.0 | 0.00 | 0.00 | 0.00 | 55 | 853.6 |
| 20260902160009 | 75 | 130 | 8.0 | 14.0 | 0.00 | 0.00 | 0.00 | 55 | 853.4 |
| 20260902154510 | 74 | 130 | 9.0 | 15.0 | 0.00 | 0.00 | 0.00 | 59 | 853.3 |
| 20260902153008 | 73 | 119 | 11.0 | 16.0 | 0.00 | 0.00 | 0.00 | 64 | 853.3 |
| 20260902151509 | 71 | 120 | 9.0 | 15.0 | 0.00 | 0.00 | 0.00 | 70 | 853.3 |
| 20260902150010 | 69 | 134 | 7.0 | 13.0 | 0.00 | 0.00 | 0.00 | 75 | 853.4 |
| 20260902144510 | 67 | 123 | 5.0 | 8.0 | 0.00 | 0.00 | 0.00 | 80 | 853.3 |
| 20260902143011 | 67 | 119 | 6.0 | 10.0 | 0.00 | 0.00 | 0.00 | 78 | 853.5 |
| 20260902141511 | 66 | 107 | 5.0 | 7.0 | 0.00 | 0.00 | 0.00 | 82 | 853.4 |
| 20260902140011 | 64 | 115 | 2.0 | 4.0 | 0.00 | 0.00 | 0.00 | 84 | 853.1 |
| 20260902134521 | 63 | 126 | 2.0 | 3.0 | 0.00 | 0.00 | 0.00 | 85 | 852.9 |
| 20260902133020 | 62 | 139 | 0.0 | 2.0 | 0.00 | 0.00 | 0.00 | 86 | 852.9 |
| 20260902131517 | 62 | 138 | 1.0 | 2.0 | 0.00 | 0.00 | 0.00 | 86 | 852.8 |
| 20260902130014 | 62 | 121 | 2.0 | 6.0 | 0.00 | 0.00 | 0.00 | 85 | 852.7 |
| 20260902124517 | 62 | 106 | 3.0 | 6.0 | 0.00 | 0.00 | 0.00 | 86 | 852.6 |
| 20260902123019 | 62 | 116 | 2.0 | 4.0 | 0.00 | 0.00 | 0.00 | 85 | 852.4 |
| 20260902121517 | 63 | 113 | 2.0 | 6.0 | 0.00 | 0.00 | 0.00 | 85 | 852.2 |
| 20260902120020 | 64 | 134 | 2.0 | 4.0 | 0.00 | 0.00 | 0.00 | 84 | 852.1 |
| 20260902114524 | 64 | 134 | 3.0 | 6.0 | 0.00 | 0.00 | 0.00 | 85 | 852.2 |
| 20260902113020 | 64 | 136 | 3.0 | 7.0 | 0.00 | 0.00 | 0.00 | 85 | 852.1 |
| 20260902111520 | 64 | 140 | 2.0 | 5.0 | 0.00 | 0.00 | 0.00 | 84 | 852.2 |
| 20260902110024 | 65 | 138 | 3.0 | 7.0 | 0.00 | 0.00 | 0.00 | 83 | 852.2 |
| 20260902104532 | 65 | 124 | 4.0 | 7.0 | 0.00 | 0.00 | 0.00 | 82 | 852.2 |
| 20260902103021 | 66 | 133 | 4.0 | 8.0 | 0.00 | 0.00 | 0.00 | 81 | 852.2 |
| 20260902101523 | 66 | 132 | 4.0 | 8.0 | 0.00 | 0.00 | 0.00 | 80 | 852.3 |
| 20260902100023 | 66 | 115 | 6.0 | 9.0 | 0.00 | 0.00 | 0.00 | 80 | 852.4 |
| 20260902094526 | 66 | 130 | 4.0 | 9.0 | 0.00 | 0.00 | 0.00 | 79 | 852.5 |
| 20260902093026 | 66 | 131 | 4.0 | 9.0 | 0.00 | 0.00 | 0.00 | 76 | 852.4 |
| 20260902091527 | 67 | 152 | 4.0 | 10.0 | 0.00 | 0.00 | 0.00 | 74 | 852.5 |
| 20260902090028 | 67 | 130 | 8.0 | 15.0 | 0.00 | 0.00 | 0.00 | 72 | 852.4 |
| 20260902084530 | 66 | 144 | 3.0 | 7.0 | 0.00 | 0.00 | 0.00 | 73 | 852.6 |
| 20260902083028 | 66 | 141 | 4.0 | 8.0 | 0.00 | 0.00 | 0.00 | 73 | 852.5 |
| 20260902081529 | 65 | 150 | 4.0 | 7.0 | 0.00 | 0.00 | 0.00 | 74 | 852.5 |
| 20260902080026 | 66 | 136 | 5.0 | 8.0 | 0.00 | 0.00 | 0.00 | 74 | 852.5 |
| 20260902074527 | 66 | 137 | 3.0 | 5.0 | 0.00 | 0.00 | 0.00 | 74 | 852.4 |
| 20260902073004 | 66 | 128 | 4.0 | 7.0 | 0.00 | 0.00 | 0.00 | 74 | 852.4 |
| 20260902071504 | 66 | 128 | 4.0 | 7.0 | 0.00 | 0.00 | 0.00 | 75 | 852.4 |
| 20260902070007 | 66 | 140 | 4.0 | 6.0 | 0.00 | 0.00 | 0.00 | 75 | 852.5 |
| 20260902064528 | 65 | 143 | 3.0 | 7.0 | 0.00 | 0.00 | 0.00 | 76 | 852.6 |
| 20260902063053 | 64 | 157 | 2.0 | 4.0 | 0.00 | 0.00 | 0.00 | 77 | 852.6 |
| 20260902061531 | 64 | 158 | 1.0 | 4.0 | 0.00 | 0.00 | 0.00 | 77 | 852.6 |
| 20260902060028 | 64 | 159 | 1.0 | 4.0 | 0.00 | 0.00 | 0.00 | 76 | 852.7 |
| 20260902054533 | 64 | 146 | 2.0 | 4.0 | 0.00 | 0.00 | 0.00 | 75 | 852.7 |
| 20260902053031 | 64 | 144 | 2.0 | 5.0 | 0.00 | 0.00 | 0.00 | 74 | 852.7 |
| 20260902051537 | 65 | 153 | 2.0 | 6.0 | 0.00 | 0.00 | 0.00 | 72 | 852.8 |
| 20260902050031 | 66 | 138 | 1.0 | 3.0 | 0.00 | 0.00 | 0.00 | 70 | 852.8 |
| 20260902044531 | 67 | 136 | 2.0 | 3.0 | 0.00 | 0.00 | 0.00 | 69 | 852.7 |
| 20260902043031 | 68 | 123 | 2.0 | 3.0 | 0.00 | 0.00 | 0.00 | 66 | 852.6 |
| 20260902041544 | 70 | 202 | 1.0 | 2.0 | 0.00 | 0.00 | 0.00 | 64 | 852.6 |
| 20260902040029 | 71 | 217 | 0.0 | 2.0 | 0.00 | 0.00 | 0.00 | 62 | 852.5 |
| 20260902034530 | 72 | 185 | 1.0 | 5.0 | 0.00 | 0.00 | 0.00 | 57 | 852.4 |
| 20260902033027 | 72 | 198 | 3.0 | 6.0 | 0.00 | 0.00 | 0.00 | 57 | 852.2 |
| 20260902031527 | 72 | 202 | 5.0 | 8.0 | 0.00 | 0.00 | 0.00 | 56 | 852.1 |
| 20260902030029 | 72 | 176 | 3.0 | 9.0 | 0.00 | 0.00 | 0.00 | 54 | 851.9 |
| 20260902024529 | 73 | 183 | 4.0 | 9.0 | 0.00 | 0.00 | 0.00 | 52 | 851.6 |
| 20260902023026 | 73 | 205 | 3.0 | 6.0 | 0.00 | 0.00 | 0.00 | 51 | 851.7 |
| 20260902021527 | 74 | 219 | 3.0 | 7.0 | 0.00 | 0.00 | 0.00 | 49 | 851.6 |
| 20260902020032 | 76 | 226 | 3.0 | 10.0 | 0.00 | 0.00 | 0.00 | 45 | 851.5 |
| 20260902014533 | 78 | 229 | 4.0 | 8.0 | 0.00 | 0.00 | 0.00 | 42 | 851.3 |
| 20260902013029 | 79 | 232 | 5.0 | 9.0 | 0.00 | 0.00 | 0.00 | 40 | 851.5 |
| 20260902011530 | 80 | 237 | 4.0 | 10.0 | 0.00 | 0.00 | 0.00 | 40 | 851.4 |
| 20260902010035 | 81 | 221 | 6.0 | 15.0 | 0.00 | 0.00 | 0.00 | 39 | 851.5 |
| 20260902004534 | 81 | 209 | 6.0 | 12.0 | 0.00 | 0.00 | 0.00 | 40 | 851.4 |
| 20260902003107 | 82 | 256 | 9.0 | 18.0 | 0.00 | 0.00 | 0.00 | 37 | 851.4 |
| 20260902001530 | 83 | 254 | 8.0 | 16.0 | 0.00 | 0.00 | 0.00 | 37 | 851.5 |
| 20260902000035 | 83 | 255 | 10.0 | 16.0 | 0.00 | 0.00 | 0.00 | 35 | 851.5 |
| 20260901234532 | 82 | 230 | 10.0 | 16.0 | 0.00 | 0.00 | 0.00 | 35 | 851.5 |
| 20260901233033 | 82 | 176 | 8.0 | 21.0 | 0.00 | 0.00 | 0.00 | 37 | 851.6 |
| 20260901231527 | 82 | 201 | 11.0 | 15.0 | 0.00 | 0.00 | 0.00 | 39 | 851.5 |
| 20260901230029 | 83 | 191 | 7.0 | 19.0 | 0.00 | 0.00 | 0.00 | 36 | 851.5 |
| 20260901224530 | 84 | 195 | 9.0 | 19.0 | 0.00 | 0.00 | 0.00 | 35 | 851.5 |
| 20260901223031 | 84 | 163 | 14.0 | 21.0 | 0.00 | 0.00 | 0.00 | 34 | 851.5 |